When you browse on this site, cookies collect data to enhance your experience and personalize the content and advertising you see.
Visit our Privacy Policy to learn more. By continuing to use the site, you agree to this use of cookies and data.
  • In United Kingdom
  • List of Countries
  • For 7 days
  • Water Temperature
  • Weather Map
  • Weather Widgets
  • user-avatar
    Login

    Hourly Weather Gold Coast

    Today, 25 August, Sunday

    Time Temperature Precipitation Wind Pressure Humidity
    00:00 +11°C° 0 mm 3 mps 761 mmHg 85%
    01:00 +12°C° 0 mm 2 mps 761 mmHg 86%
    02:00 +11°C° 0 mm 3 mps 761 mmHg 87%
    03:00 +10°C° 0 mm 3 mps 761 mmHg 87%
    04:00 +10°C° 0 mm 3 mps 760 mmHg 89%
    05:00 +11°C° 0 mm 3 mps 761 mmHg 87%
    06:00 +11°C° 0 mm 3 mps 761 mmHg 85%
    07:00 +12°C° 0 mm 3 mps 761 mmHg 83%
    08:00 +16°C° 0 mm 3 mps 761 mmHg 71%
    09:00 +19°C° 0 mm 3 mps 761 mmHg 59%
    10:00 +22°C° 0 mm 3 mps 761 mmHg 48%
    11:00 +23°C° 0 mm 4 mps 760 mmHg 44%
    12:00 +25°C° 0 mm 4 mps 759 mmHg 40%
    13:00 +27°C° 0 mm 4 mps 759 mmHg 37%
    14:00 +26°C° 0 mm 4 mps 758 mmHg 39%
    15:00 +26°C° 0 mm 4 mps 758 mmHg 41%
    16:00 +25°C° 0 mm 4 mps 758 mmHg 43%
    17:00 +22°C° 0 mm 4 mps 758 mmHg 52%
    18:00 +20°C° 0 mm 4 mps 758 mmHg 60%
    19:00 +18°C° 0 mm 3 mps 758 mmHg 69%
    20:00 +17°C° 0 mm 3 mps 759 mmHg 73%
    21:00 +15°C° 0 mm 4 mps 759 mmHg 77%
    22:00 +14°C° 0 mm 4 mps 759 mmHg 81%
    23:00 +14°C° 0 mm 4 mps 759 mmHg 81%

    Tomorrow, 26 August, Monday

    Time Temperature Precipitation Wind Pressure Humidity
    00:00 +13°C° 0 mm 3 mps 759 mmHg 82%
    01:00 +13°C° 0 mm 3 mps 759 mmHg 83%
    02:00 +13°C° 0 mm 3 mps 759 mmHg 83%
    03:00 +13°C° 0 mm 2 mps 759 mmHg 83%
    04:00 +13°C° 0 mm 2 mps 759 mmHg 83%
    05:00 +13°C° 0 mm 2 mps 759 mmHg 82%
    06:00 +14°C° 0 mm 2 mps 760 mmHg 80%
    07:00 +14°C° 0 mm 2 mps 760 mmHg 79%
    08:00 +19°C° 0 mm 1 mps 760 mmHg 66%
    09:00 +23°C° 0 mm 1 mps 760 mmHg 54%
    10:00 +27°C° 0 mm 1 mps 760 mmHg 42%
    11:00 +26°C° 0 mm 2 mps 760 mmHg 40%
    12:00 +26°C° 0 mm 3 mps 759 mmHg 39%
    13:00 +26°C° 0 mm 4 mps 758 mmHg 38%
    14:00 +25°C° 0.1 mm 4 mps 758 mmHg 45%
    15:00 +23°C° 0.1 mm 4 mps 758 mmHg 53%
    16:00 +22°C° 0.1 mm 5 mps 758 mmHg 61%
    17:00 +20°C° 0.1 mm 4 mps 759 mmHg 69%
    18:00 +18°C° 0.1 mm 3 mps 759 mmHg 78%
    19:00 +16°C° 0.1 mm 3 mps 760 mmHg 87%
    20:00 +16°C° 0.1 mm 2 mps 760 mmHg 89%
    21:00 +15°C° 0.1 mm 2 mps 760 mmHg 91%
    22:00 +15°C° 0.1 mm 2 mps 761 mmHg 93%
    23:00 +14°C° 0.1 mm 2 mps 761 mmHg 93%

    Day after tomorrow, 27 August, Tuesday

    Time Temperature Precipitation Wind Pressure Humidity
    00:00 +14°C° 0.1 mm 2 mps 761 mmHg 92%
    01:00 +14°C° 0.1 mm 2 mps 761 mmHg 92%
    02:00 +13°C° 0 mm 2 mps 761 mmHg 91%
    03:00 +13°C° 0 mm 2 mps 760 mmHg 91%
    04:00 +13°C° 0 mm 2 mps 760 mmHg 91%
    05:00 +14°C° 0 mm 2 mps 761 mmHg 89%
    06:00 +14°C° 0 mm 2 mps 761 mmHg 87%
    07:00 +13°C° 0 mm 3 mps 762 mmHg 84%
    08:00 +18°C° 0 mm 2 mps 762 mmHg 71%
    09:00 +21°C° 0 mm 2 mps 762 mmHg 58%
    10:00 +25°C° 0 mm 2 mps 762 mmHg 45%
    11:00 +25°C° 0 mm 3 mps 761 mmHg 44%
    12:00 +25°C° 0 mm 3 mps 760 mmHg 42%
    13:00 +26°C° 0 mm 3 mps 760 mmHg 41%
    14:00 +24°C° 0 mm 3 mps 760 mmHg 47%
    15:00 +22°C° 0 mm 3 mps 760 mmHg 53%
    16:00 +21°C° 0 mm 3 mps 760 mmHg 58%
    17:00 +19°C° 0.1 mm 2 mps 760 mmHg 68%
    18:00 +17°C° 0.1 mm 2 mps 760 mmHg 78%
    19:00 +15°C° 0.1 mm 2 mps 761 mmHg 88%
    20:00 +15°C° 0.2 mm 1 mps 761 mmHg 88%
    21:00 +14°C° 0.2 mm 1 mps 761 mmHg 88%
    22:00 +14°C° 0.2 mm 1 mps 761 mmHg 89%
    23:00 +14°C° 0.1 mm 1 mps 761 mmHg 89%

    28 August, Wednesday

    Time Temperature Precipitation Wind Pressure Humidity
    00:00 +14°C° 0.1 mm 1 mps 761 mmHg 89%
    01:00 +14°C° 0.1 mm 1 mps 761 mmHg 89%
    02:00 +13°C° 0.1 mm 1 mps 761 mmHg 88%
    03:00 +13°C° 0.1 mm 1 mps 760 mmHg 88%
    04:00 +13°C° 0.1 mm 1 mps 760 mmHg 88%
    05:00 +14°C° 0 mm 1 mps 761 mmHg 86%
    06:00 +14°C° 0 mm 1 mps 761 mmHg 84%
    07:00 +14°C° 0 mm 2 mps 762 mmHg 82%
    08:00 +17°C° 0 mm 2 mps 761 mmHg 69%
    09:00 +20°C° 0 mm 2 mps 761 mmHg 56%
    10:00 +25°C° 0 mm 2 mps 761 mmHg 43%
    11:00 +25°C° 0 mm 3 mps 761 mmHg 41%
    12:00 +26°C° 0 mm 4 mps 760 mmHg 39%
    13:00 +26°C° 0 mm 4 mps 759 mmHg 37%
    14:00 +23°C° 0.4 mm 4 mps 759 mmHg 52%
    15:00 +20°C° 0.4 mm 4 mps 758 mmHg 67%
    16:00 +17°C° 0.4 mm 3 mps 758 mmHg 82%
    17:00 +17°C° 0.5 mm 3 mps 758 mmHg 85%
    18:00 +16°C° 0.5 mm 3 mps 759 mmHg 88%
    19:00 +15°C° 0.5 mm 2 mps 760 mmHg 91%
    20:00 +14°C° 0.2 mm 3 mps 760 mmHg 92%
    21:00 +13°C° 0.2 mm 3 mps 760 mmHg 93%
    22:00 +13°C° 0.2 mm 3 mps 760 mmHg 94%
    23:00 +13°C° 0.1 mm 3 mps 760 mmHg 94%

    29 August, Thursday

    Time Temperature Precipitation Wind Pressure Humidity
    00:00 +13°C° 0.1 mm 2 mps 760 mmHg 94%
    01:00 +13°C° 0.1 mm 2 mps 759 mmHg 94%
    02:00 +13°C° 0 mm 2 mps 759 mmHg 93%
    03:00 +12°C° 0 mm 2 mps 759 mmHg 91%
    04:00 +12°C° 0 mm 2 mps 759 mmHg 89%
    05:00 +10°C° 0 mm 2 mps 759 mmHg 87%
    06:00 +10°C° 0 mm 2 mps 759 mmHg 84%
    07:00 +10°C° 0 mm 2 mps 760 mmHg 82%
    08:00 +15°C° 0 mm 2 mps 760 mmHg 65%
    09:00 +18°C° 0 mm 3 mps 760 mmHg 48%
    10:00 +21°C° 0 mm 3 mps 759 mmHg 31%
    11:00 +22°C° 0 mm 3 mps 759 mmHg 29%
    12:00 +24°C° 0 mm 3 mps 758 mmHg 27%
    13:00 +25°C° 0 mm 3 mps 757 mmHg 25%
    14:00 +24°C° 0 mm 3 mps 757 mmHg 26%
    15:00 +23°C° 0 mm 4 mps 756 mmHg 27%
    16:00 +22°C° 0 mm 4 mps 756 mmHg 28%
    17:00 +20°C° 0 mm 4 mps 757 mmHg 33%
    18:00 +18°C° 0 mm 4 mps 757 mmHg 38%
    19:00 +14°C° 0 mm 4 mps 758 mmHg 43%
    20:00 +13°C° 0 mm 4 mps 758 mmHg 45%
    21:00 +13°C° 0 mm 4 mps 759 mmHg 47%
    22:00 +12°C° 0 mm 4 mps 759 mmHg 48%
    23:00 +11°C° 0 mm 4 mps 759 mmHg 52%

    30 August, Friday

    Time Temperature Precipitation Wind Pressure Humidity
    00:00 +10°C° 0 mm 4 mps 759 mmHg 56%
    01:00 +9°C° 0 mm 3 mps 759 mmHg 60%
    02:00 +8°C° 0 mm 3 mps 759 mmHg 57%
    03:00 +7°C° 0 mm 3 mps 759 mmHg 55%
    04:00 +4°C° 0 mm 3 mps 758 mmHg 53%
    05:00 +5°C° 0 mm 3 mps 759 mmHg 51%
    06:00 +5°C° 0 mm 3 mps 759 mmHg 49%
    07:00 +5°C° 0 mm 3 mps 759 mmHg 48%
    08:00 +9°C° 0 mm 3 mps 759 mmHg 41%
    09:00 +12°C° 0 mm 3 mps 759 mmHg 35%
    10:00 +16°C° 0 mm 3 mps 759 mmHg 28%
    11:00 +17°C° 0 mm 3 mps 758 mmHg 29%
    12:00 +18°C° 0 mm 3 mps 757 mmHg 29%
    13:00 +20°C° 0 mm 3 mps 756 mmHg 30%
    14:00 +20°C° 0 mm 3 mps 756 mmHg 30%
    15:00 +20°C° 0 mm 4 mps 756 mmHg 31%
    16:00 +19°C° 0 mm 4 mps 756 mmHg 31%
    17:00 +17°C° 0 mm 4 mps 756 mmHg 38%
    18:00 +14°C° 0 mm 4 mps 757 mmHg 45%
    19:00 +12°C° 0 mm 4 mps 757 mmHg 51%
    20:00 +11°C° 0 mm 4 mps 757 mmHg 56%
    21:00 +10°C° 0 mm 3 mps 758 mmHg 60%
    22:00 +9°C° 0 mm 3 mps 758 mmHg 65%
    23:00 +8°C° 0 mm 3 mps 758 mmHg 66%
    Show more